Theta_e
293 292 292 292 292 292 294 297 299 300 301 302 305 307 309 313 313 314 313 312 312 311
292 292 292 293 295 293 293 298 299 298 299 301 303 306 309 311 314 314 314 313 312 312
292 292 294 294 294 296 297 297 298 299 300 301 304 307 309 313 315 313 313 313 313 312
291 292 294 296 296 297 298 298 298 299 300 302 304 307 310 314 314 313 312 313 312 310
291 293 295 294 296 297 297 298 299 300 301 303 306 309 311 313 314 313 312 312 311 310
291 292 296 296 296 297 297 298 300 301 303 305 308 311 312 313 313 313 312 312 312 310
291 295 295 295 295 296 297 299 301 303 306 308 310 311 311 310 310 309 310 310 311 311
294 295 295 295 295 295 296 297 298 300 300 301 302 305 305 304 303 302 300 299 301 304
294 294 294 294 294 295 295 296 296 296 296 296 297 295 297 299 300 299 298 296 296 296
291 292 293 293 294 294 294 295 295 294 294 293 294 294 294 294 297 296 296 295 295 294
291 290 289 290 293 293 293 294 294 293 293 292 292 293 293 292 294 292 291 291 293 294
289 289 289 289 290 291 291 291 289 291 292 292 291 291 292 292 291 288 287 287 288 290
289 289 289 288 288 287 287 287 287 286 288 287 290 291 291 290 288 286 285 285 286 287
288 288 288 288 287 287 287 286 286 285 285 285 287 290 291 290 287 285 285 285 284 285
Wind_Speed
2 1 1 1 2 2 1 3 4 3 3 4 4 3 2 2 6 5 9 11 7 5
2 1 2 3 3 1 3 3 4 3 4 4 4 3 3 1 6 7 8 8 7 5
1 2 4 3 4 3 3 4 4 4 4 4 3 2 3 1 7 8 5 6 9 6
1 4 4 3 3 2 3 3 4 4 4 3 3 3 3 2 9 11 8 6 7 5
2 4 3 4 3 2 3 2 4 4 4 3 4 4 2 3 7 9 10 7 6 6
2 3 3 3 2 4 4 3 2 4 3 2 1 3 5 6 6 6 7 7 7 6
4 2 3 2 2 3 3 4 4 3 4 4 5 4 5 6 6 5 5 5 6 7
4 1 1 2 4 5 5 5 6 6 7 7 5 3 6 6 6 7 7 6 5 4
2 1 1 3 4 5 6 6 7 8 8 7 5 9 12 9 8 7 8 8 8 8
1 2 3 3 6 6 7 7 8 9 9 10 9 13 15 13 9 9 8 8 8 8
3 2 3 5 7 7 7 8 8 8 9 11 9 13 17 16 11 11 11 9 9 8
4 4 3 5 7 7 9 9 8 6 9 11 9 13 13 14 11 12 11 10 9 8
5 5 5 5 7 4 8 8 8 8 7 6 9 12 13 11 8 11 8 8 10 14
5 7 6 5 5 6 9 8 8 9 7 7 6 8 12 11 7 9 8 7 6 6
Wind_Direction
65 57 135 143 296 291 320 296 297 334 339 327 324 318 313 298 138 127 135 136 152 134
70 2 280 245 237 245 272 271 290 314 312 302 299 299 306 278 143 141 142 147 132 136
134 259 270 287 298 304 289 288 306 302 284 286 274 256 251 329 140 155 122 125 130 133
285 291 286 277 321 326 286 264 270 266 270 267 246 225 228 222 137 150 156 125 128 121
319 308 302 327 317 284 278 270 234 228 233 210 208 203 170 101 134 136 146 147 131 138
270 289 307 311 345 337 327 309 223 199 188 142 136 195 204 161 129 134 145 156 163 150
264 288 299 311 18 77 9 10 63 88 132 169 176 148 104 109 118 118 132 154 159 157
257 286 79 12 45 48 65 63 33 62 57 49 55 76 100 88 94 102 90 65 73 93
226 143 86 71 64 71 58 71 78 62 65 62 57 74 83 96 94 88 97 94 80 79
189 159 111 86 83 73 80 78 73 66 66 58 50 64 82 79 81 81 74 82 88 85
156 131 106 92 89 73 70 73 72 72 78 79 55 65 76 81 81 75 62 58 65 80
160 133 114 91 98 86 93 80 66 59 80 86 69 62 81 94 88 80 67 58 54 74
143 134 113 105 95 69 86 89 91 72 58 69 89 79 83 96 104 95 89 67 67 69
141 128 113 94 86 103 95 87 84 85 60 60 62 93 99 107 108 115 108 92 76 63